Regional Weather Roundup
Issued by NWS

Home | Current Version | Previous Version | Text Only | Print | Product List | Glossary Off
Versions: 1 2 3 4 5 6 7 8 9 10 11 12 13 14 15 16 17 18 19 20 21 22 23 24 25 26 27 28 29 30 31 32 33 34 35 36 37 38 39 40 41 42 43 44 45 46 47 48 49 50

000
ASUS43 KFSD 230902
RWRSD

WEATHER ROUNDUP FOR SOUTH DAKOTA
NATIONAL WEATHER SERVICE SIOUX FALLS SD
400 AM CDT SAT MAY 23 2015

NOTE: "FAIR" INDICATES FEW OR NO CLOUDS BELOW 12,000 FEET WITH NO
SIGNIFICANT WEATHER AND/OR OBSTRUCTIONS TO VISIBILITY.


SDZ001>005-009-010-012>017-231000-
NORTHWEST AND NORTH CENTRAL SOUTH DAKOTA

CITY           SKY/WX    TMP DP  RH WIND       PRES   REMARKS
FAITH            N/A     44  40  85 SE8       30.09R
MOBRIDGE       PTCLDY    47  43  86 E10       30.12S
$$

SDZ012>016-024>037-041>051-057-063-072>074-231000-
SOUTHWEST AND SOUTH CENTRAL SOUTH DAKOTA

CITY           SKY/WX    TMP DP  RH WIND       PRES   REMARKS
RAPID CTY ARPT CLOUDY    45  43  93 SE6       30.06R
PIERRE         CLOUDY    50  44  80 SE10      30.12S
CUSTER         FOG       40  39  97 VRB5      30.06S VSB 1/4
ELLSWORTH AFB  CLOUDY    47  45  91 S9        30.05S
PHILIP         CLOUDY    49  44  83 SE6       30.10S
PINE RIDGE     CLOUDY    47  43  86 SE8       30.07S
WINNER         CLOUDY    51  47  86 SE9       30.13S
$$

SDZ004>011-016>023-039-040-231000-
NORTHEAST SOUTH DAKOTA

CITY           SKY/WX    TMP DP  RH WIND       PRES   REMARKS
ABERDEEN       PTCLDY    42  39  89 SE5       30.19S
WATERTOWN      PTCLDY    49  43  80 CALM      30.21R
BROOKINGS      CLOUDY    52  45  76 CALM      30.22S
$$

SDZ017-020-022-023-036>040-048>070-231000-
SOUTHEAST SOUTH DAKOTA

CITY           SKY/WX    TMP DP  RH WIND       PRES   REMARKS
SIOUX FALLS    CLOUDY    57  45  64 SE8       30.19S
HURON          CLOUDY    50  46  86 E5        30.19S
CHAMBERLAIN    CLOUDY    50  47  87 SE9       30.15S
MITCHELL       LGT RAIN  53  48  83 SE5       30.19F
YANKTON        CLOUDY    54  48  82 E7        30.18R
$$

ABBREVIATIONS USED IN REMARKS
   TC - TEMPERATURE IN CELSIUS
  WCI - WIND CHILL INDEX
   HX - HEAT INDEX
  VSB - VISIBILITY



USA.gov is the U.S. government's official web portal to all federal, state and local government web resources and services.